Regional Weather Roundup
Issued by NWS

Home | Current Version | Previous Version | Text Only | Print | Product List | Glossary Off
Versions: 1 2 3 4 5 6 7 8 9 10 11 12 13 14 15 16 17 18 19 20 21 22 23 24 25 26 27 28 29 30 31 32 33 34 35 36 37 38 39 40 41 42 43 44 45 46 47 48 49 50

380
ASUS44 KJAN 181110
RWRMS

MISSISSIPPI HOURLY WEATHER ROUNDUP
NATIONAL WEATHER SERVICE JACKSON MS
600 AM CDT THU SEP 18 2014

NOTE: "FAIR: INDICATES FEW OR NO CLOUDS BELOW 12,000 FEET WITH NO
SIGNIFICANT WEATHER AND/OR OBSTRUCTIONS TO VISIBILITY.

MSZ001>002-007>008-010>013-018>021-025>028-034>036-181200-
NORTHWEST MISSISSIPPI

CITY           SKY/WX    TMP DP  RH WIND       PRES   REMARKS
CLARKSDALE       N/A     68  68 100 CALM      29.91S
CLEVELAND      FAIR      72  69  92 CALM      29.90R
GREENWOOD      CLOUDY    71  66  84 SE3       29.91R
GREENVILLE     CLOUDY    72  68  87 SE3       29.89R
GRENADA        FAIR      68  64  88 SE3       29.92S
OLIVE BRANCH   MOCLDY    64  64 100 CALM      29.93F
OXFORD         FAIR      66  64  94 E3        29.95R
TUNICA         PTSUNNY   64  64 100 CALM      29.93R FOG
$$

MSZ003>006-009-014>017-022>024-029>033-037>039-181200-
NORTHEAST MISSISSIPPI

CITY           SKY/WX    TMP DP  RH WIND       PRES   REMARKS
COLUMBUS AFB   PTCLDY    63  63 100 CALM      29.94R
CORINTH        CLOUDY    61  59  94 CALM      29.95R
GOLDN TRIANGLE PTCLDY    64  61  88 CALM      29.94R
STARKVILLE     FAIR      63  63 100 CALM      29.94R
TUPELO         MOCLDY    66  63  90 NE3       29.94R
$$

MSZ040-058-181200-
CENTRAL MISSISSIPPI

CITY           SKY/WX    TMP DP  RH WIND       PRES   REMARKS
JACKSON INTL   CLEAR     73  67  81 CALM      29.92R
JACKSON HAWKNS PTCLDY    73  67  81 SE3       29.93R
MERIDIAN KEY   PTCLDY    67  65  93 NW3       29.93R
MERIDIAN NAS   PTCLDY    66  63  90 CALM      29.93S
RAYMOND        FAIR      70  64  83 CALM      29.92S
VICKSBURG      MOCLDY    73  71  93 SE5       29.91R
$$

MSZ059>079-181200-
SOUTH MISSISSIPPI

CITY           SKY/WX    TMP DP  RH WIND       PRES   REMARKS
BROOKHAVEN     FAIR      70  70 100 CALM      29.95R FOG
COLUMBIA       FAIR      68  68 100 CALM      29.91R
HATTIESBURG    MOCLDY    72  70  93 CALM      29.93R
MCCOMB         MOCLDY    72  70  93 CALM      29.92R
NATCHEZ        MOCLDY    72  70  94 S3        29.93R
PINE BELT      PTCLDY    70  64  83 CALM      29.93S
$$

MSZ080>082-181200-
COASTAL MISSISSIPPI

CITY           SKY/WX    TMP DP  RH WIND       PRES   REMARKS
BILOXI         CLEAR     76  72  87 N1        29.90R
PASCAGOULA     CLEAR     70  69  97 S3        29.91R FOG
GULFPORT       PTCLDY    73  71  93 CALM      29.90R
$$



USA.gov is the U.S. government's official web portal to all federal, state and local government web resources and services.